This is the latest recevied weather packets stored in our database for station/object HG5CJW-10. If no packets are shown the sender has not sent any weather packets the latest 10 day(s).
| Time | Temp. | Humidity | Pressure | Rain* | Wind** | Luminosity | Snow |
|---|---|---|---|---|---|---|---|
| 1788078688 | 21.67° C | 49% | 1036.8 hPa | - | - | - | - |
| 1788077787 | 21.11° C | 50% | 1036.8 hPa | - | - | - | - |
| 1788076887 | 20.56° C | 51% | 1036.7 hPa | - | - | - | - |
| 1788075987 | 20.56° C | 52% | 1036.8 hPa | - | - | - | - |
| 1788075087 | 20° C | 53% | 1036.7 hPa | - | - | - | - |
| 1788074187 | 19.44° C | 53% | 1036.7 hPa | - | - | - | - |
| 1788073287 | 19.44° C | 54% | 1036.6 hPa | - | - | - | - |
| 1788072387 | 19.44° C | 55% | 1036.7 hPa | - | - | - | - |
| 1788069687 | 19.44° C | 55% | 1036.4 hPa | - | - | - | - |
| 1788067896 | 19.44° C | 55% | 1036.2 hPa | - | - | - | - |
| 1788066081 | 19.44° C | 55% | 1036 hPa | - | - | - | - |
| 1788064281 | 19.44° C | 54% | 1035.7 hPa | - | - | - | - |
| 1788062481 | 20° C | 54% | 1036.1 hPa | - | - | - | - |
| 1788060681 | 20° C | 54% | 1035.8 hPa | - | - | - | - |
| 1788057081 | 20.56° C | 54% | 1035.6 hPa | - | - | - | - |
| 1788055280 | 21.11° C | 53% | 1035.5 hPa | - | - | - | - |
| 1788053480 | 21.11° C | 53% | 1035.1 hPa | - | - | - | - |
| 1788052575 | 21.11° C | 53% | 1034.5 hPa | - | - | - | - |
| 1788051675 | 21.67° C | 53% | 1035.2 hPa | - | - | - | - |
| 1788050775 | 21.67° C | 53% | - | - | - | - | - |
| 1788049875 | 21.67° C | 53% | 1035.2 hPa | - | - | - | - |
| 1788048074 | 22.22° C | 52% | 1035.1 hPa | - | - | - | - |
| 1788047174 | 22.22° C | 52% | 1035.2 hPa | - | - | - | - |
| 1788046274 | 22.22° C | 52% | 1035.1 hPa | - | - | - | - |
| 1788044474 | 22.78° C | 51% | 1035.2 hPa | - | - | - | - |
* Rain since midnight (hover to see other rain measurements)
** Current wind speed in m/s (hover to see current wind gust speed)